Time,TemperatureF,DewpointF,PressureIn,WindDirection,WindDirectionDegrees,WindSpeedMPH,WindSpeedGustMPH,Humidity,HourlyPrecipIn,Conditions,Clouds,dailyrainin,SoftwareType,DateUTC
2013-03-21 07:55:00,43.8,23.9,29.47,West,270,11.0,23.0,45,0.00,,---,0.00,VWS V14.01,2013-03-21 13:55:00,
2013-03-21 08:11:00,43.8,23.9,29.47,West,270,11.0,23.0,45,0.00,,---,0.00,VWS V14.01,2013-03-21 14:11:00,
2013-03-21 08:16:00,44.1,24.1,29.45,WSW,246,9.0,18.0,45,0.00,,---,0.00,VWS V14.01,2013-03-21 14:16:00,
2013-03-21 08:21:00,43.9,24.0,29.46,NW,315,11.0,14.0,45,0.00,,---,0.00,VWS V14.01,2013-03-21 14:21:00,
2013-03-21 08:26:00,43.9,24.0,29.46,West,263,5.0,12.0,45,0.00,,---,0.00,VWS V14.01,2013-03-21 14:26:00,
2013-03-21 08:31:00,43.9,24.5,29.46,NW,308,7.0,10.0,46,0.00,,---,0.00,VWS V14.01,2013-03-21 14:31:00,
2013-03-21 08:36:00,44.0,24.0,29.46,NW,325,4.0,14.0,45,0.00,,---,0.00,VWS V14.01,2013-03-21 14:36:00,
2013-03-21 08:41:00,44.1,24.1,29.45,West,264,5.0,9.0,45,0.00,,---,0.00,VWS V14.01,2013-03-21 14:41:00,
2013-03-21 08:46:00,44.3,24.3,29.45,West,271,0.0,6.0,45,0.00,,---,0.00,VWS V14.01,2013-03-21 14:46:00,
2013-03-21 08:51:00,44.8,24.8,29.45,WNW,285,4.0,10.0,45,0.00,,---,0.00,VWS V14.01,2013-03-21 14:51:00,
2013-03-21 08:56:00,44.7,25.2,29.45,WNW,302,7.0,7.0,46,0.00,,---,0.00,VWS V14.01,2013-03-21 14:56:00,
2013-03-21 09:01:00,44.8,25.3,29.45,West,264,6.0,13.0,46,0.00,,---,0.00,VWS V14.01,2013-03-21 15:01:00,
2013-03-21 09:06:00,44.8,24.2,29.45,WSW,258,5.0,16.0,44,0.00,,---,0.00,VWS V14.01,2013-03-21 15:06:00,
2013-03-21 09:11:00,44.7,24.7,29.45,West,260,2.0,12.0,45,0.00,,---,0.00,VWS V14.01,2013-03-21 15:11:00,
2013-03-21 09:16:00,43.6,26.7,29.47,WNW,300,11.0,20.0,51,0.00,,---,0.00,VWS V14.01,2013-03-21 15:16:00,
2013-03-21 09:21:00,43.0,26.1,29.47,NW,309,5.0,15.0,51,0.00,,---,0.00,VWS V14.01,2013-03-21 15:21:00,
2013-03-21 09:26:00,42.7,26.8,29.47,NW,309,10.0,11.0,53,0.00,,---,0.00,VWS V14.01,2013-03-21 15:26:00,
2013-03-21 09:31:00,42.9,26.0,29.48,NW,310,9.0,10.0,51,0.00,,---,0.00,VWS V14.01,2013-03-21 15:31:00,
2013-03-21 09:37:00,43.2,25.4,29.48,WSW,254,7.0,8.0,49,0.00,,---,0.00,VWS V14.01,2013-03-21 15:37:00,
2013-03-21 09:42:00,43.0,26.6,29.48,SSW,208,9.0,9.0,52,0.00,,---,0.00,VWS V14.01,2013-03-21 15:42:00,
2013-03-21 09:47:00,42.4,26.5,29.48,West,271,13.0,13.0,53,0.00,,---,0.00,VWS V14.01,2013-03-21 15:47:00,
2013-03-21 09:52:00,41.7,27.6,29.50,WSW,252,4.0,7.0,57,0.00,,---,0.00,VWS V14.01,2013-03-21 15:52:00,
2013-03-21 09:57:00,41.3,27.6,29.50,SW,232,4.0,10.0,58,0.00,,---,0.00,VWS V14.01,2013-03-21 15:57:00,
2013-03-21 10:02:00,41.4,28.2,29.50,SW,221,5.0,9.0,59,0.00,,---,0.00,VWS V14.01,2013-03-21 16:02:00,
2013-03-21 10:07:00,40.9,29.3,29.50,SW,215,7.0,11.0,63,0.00,,---,0.00,VWS V14.01,2013-03-21 16:07:00,
2013-03-21 10:12:00,40.6,29.4,29.50,SSW,209,6.0,6.0,64,0.00,,---,0.00,VWS V14.01,2013-03-21 16:12:00,
2013-03-21 10:17:00,40.5,28.5,29.50,SW,221,6.0,7.0,62,0.00,,---,0.00,VWS V14.01,2013-03-21 16:17:00,
2013-03-21 10:22:00,41.3,29.7,29.49,SSW,198,7.0,7.0,63,0.00,,---,0.00,VWS V14.01,2013-03-21 16:22:00,
2013-03-21 10:27:00,43.0,28.0,29.47,SW,233,9.0,11.0,55,0.00,,---,0.00,VWS V14.01,2013-03-21 16:27:00,
2013-03-21 10:32:00,44.5,26.5,29.45,SSW,193,10.0,11.0,49,0.00,,---,0.00,VWS V14.01,2013-03-21 16:32:00,
2013-03-21 10:37:00,44.8,25.3,29.45,SW,218,11.0,13.0,46,0.00,,---,0.00,VWS V14.01,2013-03-21 16:37:00,
2013-03-21 10:42:00,45.3,23.6,29.46,West,260,8.0,12.0,42,0.00,,---,0.00,VWS V14.01,2013-03-21 16:42:00,
2013-03-21 10:47:00,45.3,23.0,29.46,West,261,6.0,6.0,41,0.00,,---,0.00,VWS V14.01,2013-03-21 16:47:00,
2013-03-21 10:52:00,45.9,22.4,29.43,SW,214,4.0,6.0,39,0.00,,---,0.00,VWS V14.01,2013-03-21 16:52:00,
2013-03-21 10:57:00,46.6,23.0,29.43,SW,222,0.0,4.0,39,0.00,,---,0.00,VWS V14.01,2013-03-21 16:57:00,
2013-03-21 11:02:00,47.0,23.3,29.43,NNE,15,2.0,2.0,39,0.00,,---,0.00,VWS V14.01,2013-03-21 17:02:00,
2013-03-21 11:07:00,48.0,22.3,29.43,NE,38,0.0,0.0,36,0.00,,---,0.00,VWS V14.01,2013-03-21 17:07:00,
2013-03-21 11:12:00,47.8,23.4,29.43,North,11,3.0,9.0,38,0.00,,---,0.00,VWS V14.01,2013-03-21 17:12:00,
2013-03-21 11:17:00,46.9,20.7,29.43,North,11,1.0,2.0,35,0.00,,---,0.00,VWS V14.01,2013-03-21 17:17:00,
2013-03-21 11:22:00,46.6,21.7,29.42,North,10,3.0,7.0,37,0.00,,---,0.00,VWS V14.01,2013-03-21 17:22:00,
2013-03-21 11:27:00,46.2,21.4,29.44,North,5,4.0,4.0,37,0.00,,---,0.00,VWS V14.01,2013-03-21 17:27:00,
2013-03-21 11:32:00,46.1,21.3,29.44,North,360,5.0,5.0,37,0.00,,---,0.00,VWS V14.01,2013-03-21 17:32:00,
2013-03-21 11:37:00,45.8,21.6,29.44,WNW,302,12.0,18.0,38,0.00,,---,0.00,VWS V14.01,2013-03-21 17:37:00,
2013-03-21 11:42:00,45.4,22.5,29.45,WSW,248,5.0,13.0,40,0.00,,---,0.00,VWS V14.01,2013-03-21 17:42:00,
2013-03-21 11:47:00,45.0,23.3,29.45,NW,321,19.0,20.0,42,0.00,,---,0.00,VWS V14.01,2013-03-21 17:47:00,
2013-03-21 11:52:00,44.5,23.4,29.44,NNW,344,0.0,2.0,43,0.00,,---,0.00,VWS V14.01,2013-03-21 17:52:00,
2013-03-21 11:57:00,44.6,22.9,29.43,NNW,337,5.0,10.0,42,0.00,,---,0.00,VWS V14.01,2013-03-21 17:57:00,
2013-03-21 12:02:00,44.7,24.1,29.43,NW,304,4.0,6.0,44,0.00,,---,0.00,VWS V14.01,2013-03-21 18:02:00,
2013-03-21 12:07:00,45.2,24.6,29.44,NW,306,7.0,11.0,44,0.00,,---,0.00,VWS V14.01,2013-03-21 18:07:00,
2013-03-21 12:12:00,46.1,20.6,29.43,West,259,21.0,21.0,36,0.00,,---,0.00,VWS V14.01,2013-03-21 18:12:00,
2013-03-21 12:17:00,46.8,24.4,29.43,WNW,287,11.0,12.0,41,0.00,,---,0.00,VWS V14.01,2013-03-21 18:17:00,
2013-03-21 12:22:00,48.0,20.3,29.41,WNW,301,13.0,18.0,33,0.00,,---,0.00,VWS V14.01,2013-03-21 18:22:00,
2013-03-21 12:27:00,48.2,19.0,29.41,NW,309,21.0,30.0,31,0.00,,---,0.00,VWS V14.01,2013-03-21 18:27:00,
2013-03-21 12:32:00,48.2,19.7,29.40,West,273,15.0,18.0,32,0.00,,---,0.00,VWS V14.01,2013-03-21 18:32:00,
2013-03-21 12:37:00,48.5,18.5,29.40,West,277,14.0,19.0,30,0.00,,---,0.00,VWS V14.01,2013-03-21 18:37:00,
2013-03-21 12:42:00,48.5,19.3,29.40,SW,230,14.0,15.0,31,0.00,,---,0.00,VWS V14.01,2013-03-21 18:42:00,
2013-03-21 12:47:00,49.2,19.9,29.40,WNW,292,14.0,25.0,31,0.00,,---,0.00,VWS V14.01,2013-03-21 18:47:00,
2013-03-21 12:52:00,49.0,18.1,29.39,NW,306,10.0,19.0,29,0.00,,---,0.00,VWS V14.01,2013-03-21 18:52:00,
2013-03-21 12:57:00,49.6,17.9,29.38,WNW,302,11.0,22.0,28,0.00,,---,0.00,VWS V14.01,2013-03-21 18:57:00,
2013-03-21 13:02:00,49.9,19.7,29.38,WNW,286,16.0,16.0,30,0.00,,---,0.00,VWS V14.01,2013-03-21 19:02:00,
2013-03-21 13:08:00,49.4,20.8,29.38,West,269,6.0,7.0,32,0.00,,---,0.00,VWS V14.01,2013-03-21 19:08:00,
2013-03-21 13:13:00,49.9,20.5,29.38,West,274,13.0,21.0,31,0.00,,---,0.00,VWS V14.01,2013-03-21 19:13:00,
2013-03-21 13:18:00,49.5,19.4,29.38,WNW,285,11.0,19.0,30,0.00,,---,0.00,VWS V14.01,2013-03-21 19:18:00,
2013-03-21 13:23:00,48.2,19.7,29.40,West,276,13.0,25.0,32,0.00,,---,0.00,VWS V14.01,2013-03-21 19:23:00,
2013-03-21 13:28:00,46.7,21.2,29.41,WNW,302,19.0,23.0,36,0.00,,---,0.00,VWS V14.01,2013-03-21 19:28:00,
2013-03-21 13:33:00,45.2,22.9,29.42,NW,317,31.0,31.0,41,0.00,,---,0.00,VWS V14.01,2013-03-21 19:33:00,
2013-03-21 13:38:00,42.2,25.9,29.46,NNW,336,18.0,25.0,52,0.00,,---,0.00,VWS V14.01,2013-03-21 19:38:00,
2013-03-21 13:43:00,40.7,26.2,29.45,WNW,293,9.0,12.0,56,0.00,,---,0.00,VWS V14.01,2013-03-21 19:43:00,
2013-03-21 13:48:00,41.7,26.7,29.45,NNW,342,15.0,18.0,55,0.00,,---,0.00,VWS V14.01,2013-03-21 19:48:00,
2013-03-21 13:53:00,43.3,25.9,29.44,North,355,2.0,6.0,50,0.00,,---,0.00,VWS V14.01,2013-03-21 19:53:00,
2013-03-21 13:58:00,44.7,24.7,29.43,NW,323,13.0,15.0,45,0.00,,---,0.00,VWS V14.01,2013-03-21 19:58:00,
2013-03-21 14:03:00,44.3,23.8,29.45,WNW,292,18.0,23.0,44,0.00,,---,0.00,VWS V14.01,2013-03-21 20:03:00,
2013-03-21 14:08:00,44.7,23.0,29.43,NE,34,10.0,15.0,42,0.00,,---,0.00,VWS V14.01,2013-03-21 20:08:00,
2013-03-21 14:13:00,44.7,23.6,29.43,North,355,10.0,24.0,43,0.00,,---,0.00,VWS V14.01,2013-03-21 20:13:00,
2013-03-21 14:18:00,45.0,22.7,29.43,NW,322,13.0,16.0,41,0.00,,---,0.00,VWS V14.01,2013-03-21 20:18:00,
2013-03-21 14:23:00,46.7,21.8,29.41,West,261,13.0,15.0,37,0.00,,---,0.00,VWS V14.01,2013-03-21 20:23:00,
2013-03-21 14:28:00,47.1,22.8,29.42,WNW,284,16.0,28.0,38,0.00,,---,0.00,VWS V14.01,2013-03-21 20:28:00,
2013-03-21 14:33:00,46.1,26.0,29.41,NNW,331,18.0,19.0,45,0.00,,---,0.00,VWS V14.01,2013-03-21 20:33:00,
2013-03-21 14:38:00,46.3,24.5,29.42,NW,323,22.0,22.0,42,0.00,,---,0.00,VWS V14.01,2013-03-21 20:38:00,
2013-03-21 14:43:00,45.5,24.3,29.42,NW,317,20.0,24.0,43,0.00,,---,0.00,VWS V14.01,2013-03-21 20:43:00,
2013-03-21 14:48:00,43.6,25.2,29.44,NNW,341,13.0,24.0,48,0.00,,---,0.00,VWS V14.01,2013-03-21 20:48:00,
2013-03-21 14:53:00,44.1,24.7,29.43,West,263,8.0,20.0,46,0.00,,---,0.00,VWS V14.01,2013-03-21 20:53:00,
2013-03-21 14:58:00,44.6,22.9,29.44,NW,315,19.0,19.0,42,0.00,,---,0.00,VWS V14.01,2013-03-21 20:58:00,
2013-03-21 15:03:00,43.6,24.2,29.44,West,277,15.0,19.0,46,0.00,,---,0.00,VWS V14.01,2013-03-21 21:03:00,
2013-03-21 15:08:00,43.6,24.2,29.45,West,279,6.0,16.0,46,0.00,,---,0.00,VWS V14.01,2013-03-21 21:08:00,
2013-03-21 15:13:00,44.1,24.1,29.44,West,267,10.0,10.0,45,0.00,,---,0.00,VWS V14.01,2013-03-21 21:13:00,
2013-03-21 15:18:00,44.5,22.3,29.44,WSW,250,11.0,20.0,41,0.00,,---,0.00,VWS V14.01,2013-03-21 21:18:00,
2013-03-21 15:23:00,45.6,21.5,29.42,WNW,282,10.0,16.0,38,0.00,,---,0.00,VWS V14.01,2013-03-21 21:23:00,
2013-03-21 15:28:00,46.7,20.5,29.41,NW,307,10.0,21.0,35,0.00,,---,0.00,VWS V14.01,2013-03-21 21:28:00,
2013-03-21 15:33:00,47.0,20.1,29.40,West,274,11.0,24.0,34,0.00,,---,0.00,VWS V14.01,2013-03-21 21:33:00,
2013-03-21 15:39:00,47.2,20.3,29.41,WNW,286,13.0,25.0,34,0.00,,---,0.00,VWS V14.01,2013-03-21 21:39:00,
2013-03-21 15:44:00,46.9,21.4,29.39,NW,313,10.0,22.0,36,0.00,,---,0.00,VWS V14.01,2013-03-21 21:44:00,
2013-03-21 15:48:00,47.0,21.5,29.40,WNW,299,8.0,13.0,36,0.00,,---,0.00,VWS V14.01,2013-03-21 21:48:00,
2013-03-21 15:54:00,46.7,19.1,29.41,West,265,13.0,22.0,33,0.00,,---,0.00,VWS V14.01,2013-03-21 21:54:00,
2013-03-21 15:59:00,47.0,19.4,29.41,NW,309,16.0,24.0,33,0.00,,---,0.00,VWS V14.01,2013-03-21 21:59:00,
2013-03-21 16:03:00,46.3,22.7,29.43,NW,308,16.0,22.0,39,0.00,,---,0.00,VWS V14.01,2013-03-21 22:03:00,
2013-03-21 16:09:00,46.2,22.0,29.41,NNW,333,15.0,20.0,38,0.00,,---,0.00,VWS V14.01,2013-03-21 22:09:00,
2013-03-21 16:14:00,46.2,22.0,29.41,NNW,334,23.0,23.0,38,0.00,,---,0.00,VWS V14.01,2013-03-21 22:14:00,
2013-03-21 16:19:00,45.2,21.7,29.43,NW,311,10.0,25.0,39,0.00,,---,0.00,VWS V14.01,2013-03-21 22:19:00,
2013-03-21 16:24:00,45.9,21.7,29.42,NW,312,9.0,20.0,38,0.00,,---,0.00,VWS V14.01,2013-03-21 22:24:00,
2013-03-21 16:29:00,45.9,20.5,29.42,WNW,299,12.0,22.0,36,0.00,,---,0.00,VWS V14.01,2013-03-21 22:29:00,
2013-03-21 16:34:00,45.6,20.2,29.42,North,360,11.0,20.0,36,0.00,,---,0.00,VWS V14.01,2013-03-21 22:34:00,
2013-03-21 16:39:00,45.4,20.0,29.44,NNW,338,9.0,16.0,36,0.00,,---,0.00,VWS V14.01,2013-03-21 22:39:00,
2013-03-21 16:44:00,46.0,19.2,29.42,SW,232,6.0,23.0,34,0.00,,---,0.00,VWS V14.01,2013-03-21 22:44:00,
2013-03-21 16:49:00,45.8,19.0,29.42,NW,319,13.0,22.0,34,0.00,,---,0.00,VWS V14.01,2013-03-21 22:49:00,
2013-03-21 16:54:00,45.4,18.7,29.43,ENE,59,3.0,21.0,34,0.00,,---,0.00,VWS V14.01,2013-03-21 22:54:00,
2013-03-21 16:59:00,45.1,19.1,29.43,NW,318,6.0,14.0,35,0.00,,---,0.00,VWS V14.01,2013-03-21 22:59:00,
2013-03-21 17:04:00,45.6,18.2,29.42,West,268,5.0,15.0,33,0.00,,---,0.00,VWS V14.01,2013-03-21 23:04:00,
2013-03-21 17:09:00,46.0,18.5,29.48,NW,306,12.0,15.0,33,0.00,,---,0.00,VWS V14.01,2013-03-21 23:09:00,
2013-03-21 17:14:00,45.8,17.6,29.48,NW,313,23.0,26.0,32,0.00,,---,0.00,VWS V14.01,2013-03-21 23:14:00,
2013-03-21 17:19:00,44.9,16.8,29.48,WNW,285,7.0,15.0,32,0.00,,---,0.00,VWS V14.01,2013-03-21 23:19:00,
2013-03-21 17:24:00,45.0,18.3,29.48,NW,304,9.0,18.0,34,0.00,,---,0.00,VWS V14.01,2013-03-21 23:24:00,
2013-03-21 17:29:00,45.1,17.7,29.48,NW,311,16.0,20.0,33,0.00,,---,0.00,VWS V14.01,2013-03-21 23:29:00,
2013-03-21 17:34:00,45.0,16.9,29.48,WNW,288,10.0,19.0,32,0.00,,---,0.00,VWS V14.01,2013-03-21 23:34:00,
2013-03-21 17:39:00,45.3,15.7,29.48,WNW,288,11.0,18.0,30,0.00,,---,0.00,VWS V14.01,2013-03-21 23:39:00,
2013-03-21 17:44:00,45.4,15.8,29.48,NW,315,21.0,24.0,30,0.00,,---,0.00,VWS V14.01,2013-03-21 23:44:00,
2013-03-21 17:49:00,45.0,15.4,29.48,West,279,9.0,20.0,30,0.00,,---,0.00,VWS V14.01,2013-03-21 23:49:00,
2013-03-21 17:54:00,44.9,15.4,29.48,West,277,7.0,14.0,30,0.00,,---,0.00,VWS V14.01,2013-03-21 23:54:00,
2013-03-21 17:59:00,44.4,17.1,29.50,WNW,292,9.0,18.0,33,0.00,,---,0.00,VWS V14.01,2013-03-21 23:59:00,
2013-03-21 18:04:00,43.8,15.9,29.50,WNW,298,14.0,19.0,32,0.00,,---,0.00,VWS V14.01,2013-03-22 00:04:00,
2013-03-21 18:09:00,43.4,15.5,29.48,WNW,297,8.0,11.0,32,0.00,,---,0.00,VWS V14.01,2013-03-22 00:09:00,
2013-03-21 18:14:00,43.7,15.8,29.47,West,277,9.0,11.0,32,0.00,,---,0.00,VWS V14.01,2013-03-22 00:14:00,
2013-03-21 18:19:00,43.7,15.1,29.48,WNW,291,10.0,14.0,31,0.00,,---,0.00,VWS V14.01,2013-03-22 00:19:00,
2013-03-21 18:24:00,43.4,14.8,29.47,WNW,303,8.0,19.0,31,0.00,,---,0.00,VWS V14.01,2013-03-22 00:24:00,
2013-03-21 18:29:00,43.0,13.7,29.49,WNW,298,5.0,21.0,30,0.00,,---,0.00,VWS V14.01,2013-03-22 00:29:00,
2013-03-21 18:34:00,42.7,14.9,29.49,NW,309,9.0,14.0,32,0.00,,---,0.00,VWS V14.01,2013-03-22 00:34:00,
2013-03-21 18:39:00,42.0,14.3,29.49,West,263,12.0,16.0,32,0.00,,---,0.00,VWS V14.01,2013-03-22 00:39:00,
2013-03-21 18:44:00,41.8,14.8,29.49,WNW,285,10.0,31.0,33,0.00,,---,0.00,VWS V14.01,2013-03-22 00:44:00,
2013-03-21 18:49:00,41.5,14.6,29.50,West,272,9.0,18.0,33,0.00,,---,0.00,VWS V14.01,2013-03-22 00:49:00,
2013-03-21 18:54:00,41.2,13.6,29.52,WSW,256,8.0,14.0,32,0.00,,---,0.00,VWS V14.01,2013-03-22 00:54:00,
2013-03-21 18:59:00,41.4,14.5,29.52,NW,317,5.0,9.0,33,0.00,,---,0.00,VWS V14.01,2013-03-22 00:59:00,
2013-03-21 19:04:00,41.1,13.5,29.52,NW,306,9.0,14.0,32,0.00,,---,0.00,VWS V14.01,2013-03-22 01:04:00,
2013-03-21 19:09:00,40.9,13.3,29.53,WNW,302,12.0,16.0,32,0.00,,---,0.00,VWS V14.01,2013-03-22 01:09:00,
2013-03-21 19:14:00,40.4,13.6,29.53,NNW,333,8.0,11.0,33,0.00,,---,0.00,VWS V14.01,2013-03-22 01:14:00,
2013-03-21 19:19:00,40.0,13.2,29.53,North,355,8.0,14.0,33,0.00,,---,0.00,VWS V14.01,2013-03-22 01:19:00,
2013-03-21 19:24:00,39.7,13.0,29.54,NNW,331,4.0,12.0,33,0.00,,---,0.00,VWS V14.01,2013-03-22 01:24:00,
2013-03-21 19:29:00,40.0,11.8,29.55,NW,310,10.0,23.0,31,0.00,,---,0.00,VWS V14.01,2013-03-22 01:29:00,
2013-03-21 19:34:00,40.3,13.5,29.55,ESE,105,8.0,11.0,33,0.00,,---,0.00,VWS V14.01,2013-03-22 01:34:00,
2013-03-21 19:39:00,38.8,13.5,29.56,East,98,5.0,11.0,35,0.00,,---,0.00,VWS V14.01,2013-03-22 01:39:00,
2013-03-21 19:45:00,37.9,13.4,29.56,East,87,5.0,9.0,36,0.00,,---,0.00,VWS V14.01,2013-03-22 01:45:00,
2013-03-21 19:50:00,37.8,13.3,29.57,ENE,68,6.0,10.0,36,0.00,,---,0.00,VWS V14.01,2013-03-22 01:50:00,
2013-03-21 19:55:00,37.7,13.2,29.57,ENE,74,5.0,11.0,36,0.00,,---,0.00,VWS V14.01,2013-03-22 01:55:00,
2013-03-21 20:00:00,37.5,13.0,29.58,ENE,57,7.0,8.0,36,0.00,,---,0.00,VWS V14.01,2013-03-22 02:00:00,
2013-03-21 20:05:00,37.0,12.5,29.60,ENE,74,5.0,8.0,36,0.00,,---,0.00,VWS V14.01,2013-03-22 02:05:00,
2013-03-21 20:10:00,36.4,12.6,29.59,ESE,102,4.0,7.0,37,0.00,,---,0.00,VWS V14.01,2013-03-22 02:10:00,
2013-03-21 20:15:00,36.1,12.4,29.61,ESE,102,1.0,3.0,37,0.00,,---,0.00,VWS V14.01,2013-03-22 02:15:00,
2013-03-21 20:20:00,35.7,12.0,29.61,East,79,5.0,6.0,37,0.00,,---,0.00,VWS V14.01,2013-03-22 02:20:00,
2013-03-21 20:25:00,35.7,12.6,29.62,East,99,4.0,6.0,38,0.00,,---,0.00,VWS V14.01,2013-03-22 02:25:00,
2013-03-21 20:30:00,36.1,12.4,29.62,ENE,63,5.0,9.0,37,0.00,,---,0.00,VWS V14.01,2013-03-22 02:30:00,
2013-03-21 20:35:00,35.8,12.1,29.63,East,89,2.0,8.0,37,0.00,,---,0.00,VWS V14.01,2013-03-22 02:35:00,
2013-03-21 20:40:00,36.1,12.4,29.63,ENE,67,2.0,8.0,37,0.00,,---,0.00,VWS V14.01,2013-03-22 02:40:00,
2013-03-21 20:45:00,36.3,11.9,29.64,East,90,6.0,9.0,36,0.00,,---,0.00,VWS V14.01,2013-03-22 02:45:00,
2013-03-21 20:50:00,36.2,12.4,29.64,East,101,0.0,5.0,37,0.00,,---,0.00,VWS V14.01,2013-03-22 02:50:00,
2013-03-21 20:55:00,35.5,12.4,29.64,East,99,2.0,5.0,38,0.00,,---,0.00,VWS V14.01,2013-03-22 02:55:00,
2013-03-21 21:00:00,34.5,12.1,29.64,ENE,65,2.0,2.0,39,0.00,,---,0.00,VWS V14.01,2013-03-22 03:00:00,
2013-03-21 21:05:00,34.1,12.3,29.66,ENE,65,0.0,1.0,40,0.00,,---,0.00,VWS V14.01,2013-03-22 03:05:00,
2013-03-21 21:10:00,33.8,12.1,29.69,ENE,65,0.0,0.0,40,0.00,,---,0.00,VWS V14.01,2013-03-22 03:10:00,
2013-03-21 21:15:00,33.5,12.3,29.69,ENE,65,0.0,0.0,41,0.00,,---,0.00,VWS V14.01,2013-03-22 03:15:00,
2013-03-21 21:20:00,33.2,12.1,29.69,ENE,65,0.0,0.0,41,0.00,,---,0.00,VWS V14.01,2013-03-22 03:20:00,
2013-03-21 21:25:00,33.0,11.9,29.70,ENE,65,1.0,1.0,41,0.00,,---,0.00,VWS V14.01,2013-03-22 03:25:00,
2013-03-21 21:30:00,32.7,12.2,29.70,ENE,65,0.0,0.0,42,0.00,,---,0.00,VWS V14.01,2013-03-22 03:30:00,
2013-03-21 21:35:00,32.4,12.4,29.70,ENE,65,0.0,2.0,43,0.00,,---,0.00,VWS V14.01,2013-03-22 03:35:00,
2013-03-21 21:40:00,32.0,12.1,29.72,ENE,65,0.0,0.0,43,0.00,,---,0.00,VWS V14.01,2013-03-22 03:40:00,
2013-03-21 21:45:00,31.6,11.7,29.72,ENE,65,0.0,2.0,43,0.00,,---,0.00,VWS V14.01,2013-03-22 03:45:00,
2013-03-21 21:50:00,31.5,11.6,29.72,ENE,65,0.0,2.0,43,0.00,,---,0.00,VWS V14.01,2013-03-22 03:50:00,
2013-03-21 21:55:00,31.5,11.6,29.72,ENE,65,2.0,4.0,43,0.00,,---,0.00,VWS V14.01,2013-03-22 03:55:00,
2013-03-21 22:00:00,31.9,11.4,29.72,ESE,103,3.0,6.0,42,0.00,,---,0.00,VWS V14.01,2013-03-22 04:00:00,
2013-03-21 22:01:00,32.3,11.2,29.72,ESE,103,0.0,6.0,41,0.00,,---,0.00,VWS V14.01,2013-03-22 04:01:00,
2013-03-21 22:06:00,32.6,11.5,29.71,ESE,103,0.0,1.0,41,0.00,,---,0.00,VWS V14.01,2013-03-22 04:06:00,
2013-03-21 22:12:00,32.8,11.7,29.66,ESE,107,2.0,5.0,41,0.00,,---,0.00,VWS V14.01,2013-03-22 04:12:00,
2013-03-21 22:17:00,33.1,12.0,29.66,ESE,111,5.0,6.0,41,0.00,,---,0.00,VWS V14.01,2013-03-22 04:17:00,
2013-03-21 22:22:00,33.3,12.2,29.65,ENE,67,4.0,5.0,41,0.00,,---,0.00,VWS V14.01,2013-03-22 04:22:00,
2013-03-21 22:27:00,33.4,11.1,29.64,NE,54,4.0,6.0,39,0.00,,---,0.00,VWS V14.01,2013-03-22 04:27:00,
2013-03-21 22:32:00,33.9,11.6,29.63,East,84,5.0,9.0,39,0.00,,---,0.00,VWS V14.01,2013-03-22 04:32:00,
2013-03-21 22:37:00,33.6,11.9,29.63,ENE,59,2.0,9.0,40,0.00,,---,0.00,VWS V14.01,2013-03-22 04:37:00,
2013-03-21 22:42:00,32.5,11.4,29.66,ESE,106,2.0,2.0,41,0.00,,---,0.00,VWS V14.01,2013-03-22 04:42:00,
2013-03-21 22:47:00,31.6,11.2,29.67,ESE,109,0.0,0.0,42,0.00,,---,0.00,VWS V14.01,2013-03-22 04:47:00,
2013-03-21 22:52:00,31.0,11.7,29.69,SE,144,0.0,1.0,44,0.00,,---,0.00,VWS V14.01,2013-03-22 04:52:00,
2013-03-21 22:57:00,31.2,12.4,29.69,South,178,5.0,7.0,45,0.00,,---,0.00,VWS V14.01,2013-03-22 04:57:00,
2013-03-21 23:02:00,31.6,12.7,29.67,South,186,3.0,5.0,45,0.00,,---,0.00,VWS V14.01,2013-03-22 05:02:00,
2013-03-21 23:07:00,31.3,14.8,29.71,South,186,0.0,0.0,50,0.00,,---,0.00,VWS V14.01,2013-03-22 05:07:00,
2013-03-21 23:12:00,30.6,16.4,29.71,South,186,0.0,1.0,55,0.00,,---,0.00,VWS V14.01,2013-03-22 05:12:00,
2013-03-21 23:17:00,30.2,18.0,29.72,South,186,0.0,0.0,60,0.00,,---,0.00,VWS V14.01,2013-03-22 05:17:00,
2013-03-21 23:22:00,30.2,18.8,29.72,South,186,2.0,3.0,62,0.00,,---,0.00,VWS V14.01,2013-03-22 05:22:00,
2013-03-21 23:27:00,30.1,18.3,29.72,South,186,2.0,2.0,61,0.00,,---,0.00,VWS V14.01,2013-03-22 05:27:00,
2013-03-21 23:32:00,29.6,17.8,29.72,South,186,2.0,2.0,61,0.00,,---,0.00,VWS V14.01,2013-03-22 05:32:00,
2013-03-21 23:37:00,29.0,18.0,29.72,South,186,0.0,0.0,63,0.00,,---,0.00,VWS V14.01,2013-03-22 05:37:00,
2013-03-21 23:42:00,28.8,18.5,29.72,South,186,0.0,0.0,65,0.00,,---,0.00,VWS V14.01,2013-03-22 05:42:00,
2013-03-21 23:47:00,29.0,18.4,29.72,South,186,1.0,2.0,64,0.00,,---,0.00,VWS V14.01,2013-03-22 05:47:00,
2013-03-21 23:52:00,29.2,18.5,29.72,South,186,0.0,0.0,64,0.00,,---,0.00,VWS V14.01,2013-03-22 05:52:00,
2013-03-21 23:57:00,29.0,19.1,29.72,South,186,1.0,1.0,66,0.00,,---,0.00,VWS V14.01,2013-03-22 05:57:00,